SBFLSBPA

Guest
Details From SBFL - Hercillo Luz
To SBPA - Salgado Filho
Flight Number -
Tags generated
Created
Modified
Stats Distance 197 nm / 364 km
Max Altitude 14,000 ft / 4,267 m
Waypoints 3
Social Downloads 2
Likes 0
Share VATSIM

Download

Looking for another format? Having issues loading an existing format? Contact us
Advertisement - Login to hide

Notes

Basic altitude profile: - Ascent Rate: 2500ft/min - Ascent Speed: 250kts - Cruise Altitude: 15000ft - Cruise Speed: 330kts - Descent Rate: 1800ft/min - Descent Speed: 250kts

Route

SBFL BELIC SBPA

ID Type Via Altitude Latitude Longitude Leg Dist Tot Dist Heading (true) Name
O SBFL APT - 0 ft / 0 m -27.67049˚ -48.54718˚ - 0 nm - Hercillo Luz
BELIC FIX - 14,000 ft / 4,267 m -28.91783˚ -49.79683˚ 99 nm 99 nm 221° / 222° -
O SBPA APT - 0 ft / 0 m -29.99443˚ -51.17143˚ 96 nm 196 nm 228° / 228° Salgado Filho

Altitude Profile

Advertisement - Login to hide

Weather


0- 5 10 15 20 25 30 35+ Temperature / ° C

Clouds and Precipitation
Forecast for 2018-05-23 06:00 UTC. Updated a minute ago

Ground ~20,000 ft ~40,000 ft Winds

SBFL

Details ICAO SBFL (FLN)
Name Hercillo Luz
Region Brazil
Timezone America/Sao_Paulo (UTC-3.0)
Stats Elevation 19 ft / 6 m (AMSL)
Location -27.670487° -48.547180°
Runways 2
Magnetic Variation 19.381° W

METAR

SBFL 230300Z 19003KT 9999 SCT030 17/12 Q1020

Decode

TAF

TAF SBFL 222230Z 2300/2324 18007KT CAVOK TN14/2308Z TX20/2318Z BECMG 2314/2316 9999 SCT035 RMK PEB

Decode

Departure Runways

ID Width Length Bearing (true) Bearing (mag) Surface Threshold Offset Overrun Length
03 148 ft / 45 m 4,939 ft / 1,505 m 11.55° 30.93° Concrete 0 ft / 0 m 0 ft / 0 m
14 148 ft / 45 m 7,543 ft / 2,299 m 121.30° 140.68° Asphalt 720 ft / 219 m 0 ft / 0 m
21 148 ft / 45 m 4,939 ft / 1,505 m 191.55° 210.93° Concrete 0 ft / 0 m 0 ft / 0 m
32 148 ft / 45 m 7,543 ft / 2,299 m 301.29° 320.67° Asphalt 0 ft / 0 m 200 ft / 61 m

SBPA

Details ICAO SBPA (POA)
Name Salgado Filho
Region Brazil
Timezone America/Sao_Paulo (UTC-3.0)
Stats Elevation 11 ft / 3 m (AMSL)
Location -29.994428° -51.171426°
Runways 1
Magnetic Variation 16.945° W

METAR

SBPA 230300Z 30004KT 280V340 9999 SCT040 11/10 Q1022

Decode

TAF

Not found

Destination Runways

ID Width Length Bearing (true) Bearing (mag) Surface Threshold Offset Overrun Length
11 138 ft / 42 m 7,487 ft / 2,282 m 91.60° 108.54° Asphalt 0 ft / 0 m 230 ft / 70 m
29 138 ft / 42 m 7,487 ft / 2,282 m 271.59° 288.53° Asphalt 0 ft / 0 m 197 ft / 60 m

Approach Navaids

Runway Type Ident Frequency Range Bearing (true) Bearing (mag) Slope Elevation
11 Localiser IPA 110.30 MHz 18 nm / 33 km 90.92° 107.87° - 11 ft / 3 m (AMSL)
11 Glidescope IPA 110.30 MHz 10 nm / 19 km 91.60° 108.54° 3.00° 11 ft / 3 m (AMSL)

Popular Alternatives